Regional Weather Roundup
Issued by NWS

Home | Current Version | Previous Version | Text Only | Print | Product List | Glossary On
Versions: 1 2 3 4 5 6 7 8 9 10 11 12 13 14 15 16 17 18 19 20 21 22 23 24 25
000
ASUS44 KLIX 291513
RWRLA
LOUISIANA WEATHER ROUNDUP
NATIONAL WEATHER SERVICE NEW ORLEANS LA
1000 AM CDT THU JUN 29 2017

NOTE: "FAIR" INDICATES FEW OR NO CLOUDS BELOW 12,000 FEET WITH NO
      SIGNIFICANT WEATHER AND/OR OBSTRUCTIONS TO VISIBILITY.
      SKY/WX - SKY CONDITION AND SIGNIFICANT WEATHER.
      TMP - AIR TEMPERATURE.    DP   - DEWPOINT TEMPERATURE.
      RH  - RELATIVE HUMIDITY.  PRES - PRESSURE.
      HX  - HEAT INDEX.         WCI  - WIND CHILL INDEX.

*  THESE STATIONS ARE NOT NWS OR FAA STATIONS AND ARE NOT UNDER
   NWS QUALITY CONTROL.

LAZ040-048-061>063-065-066-069-291600-
SOUTHEAST LOUISIANA

CITY           SKY/WX    TMP DP  RH WIND       PRES   REMARKS
N.O. INTL ARPT CLOUDY    79  75  87 SE9       30.01R
N.O. LAKEFRONT CLOUDY    80  76  87 SE9       30.01S
N.O. DOWNTOWN*   N/A     80  74  81 VRB6        N/A
RESERVE*       LGT RAIN  79  75  89 SE5       30.01R
SLIDELL        CLOUDY    78  74  87 E7        30.02R
BATON ROUGE    LGT RAIN  77  75  93 SE7       29.99S
BOOTHVILLE     CLOUDY    82  78  88 S8        30.03R
BELLE CHASSE   CLOUDY    79  77  94 SE10      30.01R
BOGALUSA*      CLOUDY    75  71  86 SE3       30.06R
GALLIANO*      LGT RAIN  79  75  89 SE6       30.01S
NEW ROADS*       N/A     77  75  93 SE7       29.98F
GONZALES*      LGT RAIN  74  74  98 S7        29.99S
HAMMOND*       CLOUDY    73  72  94 SE5       30.01S
HOUMA*         PTSUNNY   81  77  89 SE14      30.01R
PORT FOURCHON* MOSUNNY   81  77  89 S12       30.01S

$$

LAZ041-044-053-054-291600-
SOUTHWEST LOUISIANA

CITY           SKY/WX    TMP DP  RH WIND       PRES   REMARKS
LAKE CHARLES   RAIN      75  73  93 N5        29.94S FOG
LAFAYETTE      CLOUDY    81  77  88 S6        29.96F
PATTERSON      LGT RAIN  75  73  93 S16       29.99R
SALT POINT       N/A     78  74  87 VRB5      29.97R
NEW IBERIA     CLOUDY    79  74  84 S10       29.96F
CHENAULT AIRPK RAIN      73  73 100 CALM      29.94S

$$

LAZ027-028-291600-
CENTRAL LOUISIANA

CITY           SKY/WX    TMP DP  RH WIND       PRES   REMARKS
FORT POLK      CLOUDY    78  74  86 S10       29.93S
ALEXANDRIA INT CLOUDY    80  74  81 SE12      29.93F
ALEXANDRIA     CLOUDY    79  75  87 S7        29.96S

$$

LAZ001-002-291600-
NORTHWEST LOUISIANA

CITY           SKY/WX    TMP DP  RH WIND       PRES   REMARKS
SHREVEPORT     PTSUNNY   80  73  79 S6        29.93S
BARKSDALE AFB  PTSUNNY   78  73  83 SE10      29.93S
DTN SHREVEPORT CLOUDY    80  72  76 SE9       29.93S

$$

LAZ014-016-291600-
NORTHEAST LOUISIANA

CITY           SKY/WX    TMP DP  RH WIND       PRES   REMARKS
MONROE         CLOUDY    77  71  82 SE6       29.98S
TALLULAH       PTSUNNY   80  73  79 S8        29.99S

$$





USA.gov is the U.S. government's official web portal to all federal, state and local government web resources and services.